{"data":{"norad_id":56353,"intl_designator":"2023-058AN","name":"STARLINK-5874","alt_names":[],"object_type":"PAYLOAD","status":"ACTIVE","operator":null,"country":"US","launch_date":"2023-04-27","launch_site_code":"AFWTR","launch_vehicle":null,"mission":null,"orbit_class":"UNKNOWN","rcs_meters":null,"size_class":null,"mass_kg":null,"dimensions":null,"purposes":["comms"],"wikipedia_slug":null,"has_3d_model":false,"image_url":null,"decayed_at":null,"tle_current":{"epoch":"2026-05-24T23:57:31.877568Z","epoch_age_seconds":78685,"freshness":"FRESH","line1":"1 56353U 23058AN  26144.99828562 -.00001032  00000+0 -67423-4 0  9999","line2":"2 56353  97.4469 144.9271 0004183 110.4075 249.7602 15.05652802169601","mean_motion":15.05652802,"eccentricity":0.0004183,"inclination_deg":97.4469,"raan_deg":144.9271,"arg_perigee_deg":110.4075,"mean_anomaly_deg":249.7602,"bstar":-6.7423e-5,"rev_number":16960,"period_min":95.639578931292,"perigee_km":546.60472756762,"apogee_km":552.40039082285,"semimajor_km":6927.6395591952,"source":"CELESTRAK","updated_at":"2026-05-25T13:38:18.007737Z"}}}